Location: Coll
(42.4728°N, 0.7714°E)
Time: 11:51:39
(UTC+00:00)

Cosmos 2058 Rocket - Pass Details

Date: 23 October 2020
Orbit: 610 x 640 km, 82.5° (Epoch: 01 December)

Event Time Altitude Azimuth Distance (km) Brightness Sun altitude
Rises 05:26:27 0° 355° (N) 2,953 6.4 -10.5°
Reaches altitude 10° 05:28:44 10° 359° (N) 2,037 5.6 -10.1°
Maximum altitude 05:33:12 60° 79° (E) 731 3.8 -9.3°
Drops below altitude 10° 05:37:37 10° 160° (SSE) 2,009 6.1 -8.4°
Sets 05:39:52 0° 164° (SSE) 2,907 6.9 -8.0°
